Location: Unspecified
(0.0000°N, 0.0000°E)
Time: 15:58:51
(UTC+01:00)

NOSS 3-3 (A) - Visible Passes

Search period start: 24 November 2014 00:00
Search period end: 04 December 2014 00:00
Orbit: 966 x 1247 km, 63.4° (Epoch: 12 November)

Date Brightness Start Highest point End Pass type
(mag) Time Alt. Az. Time Alt. Az. Time Alt. Az.
01 Dec 6.7 22:22:10 10° SSW 22:22:18 11° SSW 22:22:18 11° SSW visible
02 Dec 6.1 21:37:59 10° S 21:39:27 17° S 21:39:27 17° S visible
03 Dec 5.8 20:54:37 10° SSE 20:56:38 17° SSE 20:56:38 17° SSE visible
